Home > Time Zones > World Clock > Weather > Yemen > Aden > Past weeks

Flag for Yemen Weather past 2 weeks in Aden, Yemen

Now
90 °F

Clear.


Feels Like: 92 °F
Forecast: 80 / 93 °F
Wind: 2 mph from Northwest

Location: Aden

Current Time: Sep 21, 2014 at 1:36:28 AM

Latest Report: Sep 21, 2014 at 1:00 AM


Visibility: 10 mi

Pressure: 29.71 "Hg

Humidity: 46%

Dew point: 66 °F

Location of AdenLocation

Historic Weather in Aden — Graph

°F

Aden temperature yesterday

Maximum temperature yesterday: 95 °F (at 1:00 PM)
Minimum temperature yesterday: 88 °F (at 2:00 AM)
Average temperature yesterday: 90 °F

Past Weeks' High & Low Weather Summary

 TemperatureHumidityPressure
High99 °F (Sep 15, 12:00 PM)79% (Sep 15, 9:00 PM)29.86 "Hg (Sep 15, 9:00 PM)
Low82 °F (Sep 10, 5:00 AM)25% (Sep 15, 12:00 PM)29.53 "Hg (Sep 9, 5:00 PM)
Average90 °F50%29.70 "Hg
* Reported Midnight between Sep 5 and Sep 6 — Midnight between Sep 20 and Sep 21, Aden, Weather by CustomWeather, © 2014

Note: Actual official high and low records may vary slightly from our data, if they occured in-between our weather recording intervals... More about our weather records

Advertising

Aden weather history for previous 24 hours

 ConditionsComfort  
Time TempWeatherWind HumidityBarometerVisibility
12:00 AM
Sep 21
90 °FClear.5 mph46%29.74 "Hg10 mi
11:00 PM
Sep 20
88 °FClear.No wind46%29.77 "Hg10 mi
10:00 PM88 °FClear.No wind52%29.77 "Hg10 mi
8:00 PM90 °FClear.9 mph43%29.74 "Hg10 mi
4:00 PM91 °FPassing clouds.13 mph38%29.68 "HgN/A
3:00 PM91 °FPassing clouds.14 mph46%29.71 "HgN/A
2:00 PM93 °FPassing clouds.15 mph44%29.71 "HgN/A
1:00 PM95 °FPassing clouds.14 mph44%29.74 "HgN/A
12:00 PM93 °FPassing clouds.13 mph47%29.77 "Hg5 mi
11:00 AM91 °FBroken clouds.12 mph46%29.80 "Hg5 mi
10:00 AM91 °FBroken clouds.8 mph49%29.83 "Hg5 mi
9:00 AM90 °FBroken clouds.9 mph52%29.83 "Hg5 mi
8:00 AM90 °FPartly sunny.13 mph59%29.83 "Hg5 mi
7:00 AM88 °FPartly sunny.12 mph59%29.80 "Hg5 mi
6:00 AM88 °FPartly sunny.10 mph62%29.77 "Hg5 mi
5:00 AM88 °FPassing clouds.13 mph62%29.74 "Hg5 mi
4:00 AM88 °FPassing clouds.14 mph66%29.71 "Hg5 mi
3:00 AM88 °FPassing clouds.14 mph62%29.71 "Hg5 mi
2:00 AM88 °FClear.15 mph62%29.71 "Hg5 mi
1:00 AM90 °FClear.13 mph55%29.71 "Hg5 mi
Weather by CustomWeather, © 2014

See weather overviewHow to use our weather pages